{"data":{"norad_id":57951,"intl_designator":"2023-148S","name":"STARLINK-30399","alt_names":[],"object_type":"PAYLOAD","status":"ACTIVE","operator":null,"country":"US","launch_date":"2023-09-25","launch_site_code":"AFWTR","launch_vehicle":null,"mission":null,"orbit_class":"UNKNOWN","rcs_meters":null,"size_class":null,"mass_kg":null,"dimensions":null,"purposes":["comms"],"wikipedia_slug":null,"has_3d_model":false,"image_url":null,"decayed_at":null,"tle_current":{"epoch":"2026-05-25T01:58:37.929216Z","epoch_age_seconds":78321,"freshness":"FRESH","line1":"1 57951U 23148S   26145.08238344  .00000219  00000+0  17620-4 0  9996","line2":"2 57951  53.1619  29.0524 0001163  80.2491 279.8643 15.34387905150124","mean_motion":15.34387905,"eccentricity":0.0001163,"inclination_deg":53.1619,"raan_deg":29.0524,"arg_perigee_deg":80.2491,"mean_anomaly_deg":279.8643,"bstar":1.762e-5,"rev_number":15012,"period_min":93.848497847746,"perigee_km":461.94359543133,"apogee_km":463.53478323297,"semimajor_km":6840.8761893322,"source":"CELESTRAK","updated_at":"2026-05-25T13:38:18.463459Z"}}}